Theta_e
357 358 359 356 356 357 358 357 356 356 358 357 358 358 357 357 357 355 357 354 354 354 355 357 352 351 352 353 352 353 352 351 349 348 346 345 347 352 356 356 355 356 357
357 357 360 357 359 360 360 358 356 356 358 358 357 358 358 358 355 354 351 350 352 357 357 355 354 353 354 352 350 349 346 346 343 343 344 343 343 345 349 352 355 355 355
358 360 361 359 361 363 363 359 358 358 357 358 358 355 356 355 351 351 350 350 350 352 353 353 352 351 352 350 347 346 345 344 343 341 337 339 341 344 337 345 353 356 356
358 359 367 360 363 363 360 354 355 356 357 358 357 353 353 353 352 351 350 349 351 351 351 352 351 353 351 347 347 345 338 340 342 340 339 338 341 340 339 339 353 353 354
361 362 361 362 364 363 356 354 356 356 356 356 355 354 353 351 351 349 350 352 352 349 349 349 349 349 348 348 346 345 343 342 342 342 341 338 338 336 337 339 349 350 351
362 363 361 363 364 361 359 360 360 359 356 357 354 352 351 349 351 350 349 350 349 346 346 346 345 347 346 345 345 345 345 344 343 342 342 342 341 340 339 342 343 348 346
363 363 362 362 365 364 363 362 358 358 355 361 355 354 352 350 347 347 349 348 345 341 338 339 337 337 336 337 337 337 338 340 343 342 341 341 339 340 341 341 343 346 345
362 362 364 362 362 358 364 364 362 358 360 361 354 349 342 342 342 344 346 344 342 335 334 335 334 333 332 331 333 333 333 336 340 343 341 339 339 339 339 342 343 345 346
362 363 364 363 362 361 357 366 364 359 355 360 357 351 337 332 342 341 342 340 342 337 335 331 330 331 333 332 331 332 332 332 334 338 341 340 339 340 340 341 342 344 344
362 362 364 364 362 358 361 362 367 364 360 355 357 355 351 347 332 332 339 341 341 339 333 328 328 329 332 330 331 331 329 329 330 332 337 340 340 340 341 341 343 343 343
361 360 364 364 363 361 363 366 365 363 360 355 350 352 351 344 344 336 326 333 334 335 329 327 328 329 332 332 331 330 329 328 328 328 330 335 339 340 340 342 343 344 344
361 365 363 362 363 363 365 365 364 361 359 351 346 346 342 338 334 332 327 333 330 332 329 327 327 326 330 331 330 329 328 326 325 326 327 329 334 339 340 341 343 344 344
361 363 366 365 364 366 367 367 363 359 353 352 352 346 347 341 340 337 331 330 326 330 327 326 328 327 325 330 331 328 327 325 324 324 324 327 327 333 337 336 340 341 341
361 365 364 365 366 368 368 363 359 355 355 347 341 336 328 326 325 326 325 326 321 324 326 325 329 328 328 327 330 326 327 324 324 323 323 324 327 329 333 335 335 338 341
361 364 365 366 367 369 365 361 358 354 339 336 332 331 327 326 327 326 325 325 322 315 318 324 326 327 329 332 331 329 327 324 323 322 320 322 324 325 328 330 331 333 336
363 366 365 366 366 369 365 360 350 339 337 332 329 331 329 327 327 327 326 325 324 319 314 324 325 325 329 330 327 328 323 323 322 321 320 320 321 323 324 325 327 328 330
364 364 366 366 366 368 365 359 346 338 335 332 332 330 327 327 324 323 324 323 321 322 318 323 325 325 329 329 327 328 320 321 321 320 320 319 319 319 320 321 323 323 325
362 362 362 366 367 367 366 360 344 334 333 333 331 328 324 323 324 324 320 324 322 322 320 321 320 322 325 326 328 328 320 319 323 320 320 319 318 317 317 317 320 320 321
359 358 359 361 364 367 367 357 343 333 331 333 330 326 323 322 321 323 324 322 321 320 321 319 318 321 324 323 324 326 320 319 318 320 319 318 318 318 317 316 316 316 316
356 357 360 364 367 368 367 357 342 330 330 330 329 326 322 320 324 324 323 323 322 320 321 318 317 318 319 322 322 320 320 316 314 318 317 317 317 317 317 317 316 315 314
355 358 361 366 368 368 365 354 340 329 329 329 323 318 319 322 320 322 322 323 324 320 319 317 316 316 314 313 311 315 315 316 313 316 315 316 316 317 318 317 317 316 314
358 360 363 365 366 364 334 332 333 329 329 325 317 320 323 322 322 322 321 320 322 322 320 317 315 311 311 311 312 316 316 316 308 315 313 312 314 315 315 318 318 316 315
361 360 363 366 366 367 328 326 328 328 326 323 321 323 321 322 324 324 320 319 318 317 318 322 318 312 311 313 312 318 316 315 310 312 314 310 315 312 317 316 316 318 317
363 362 364 367 367 365 324 321 324 327 324 323 321 322 323 324 324 323 323 322 321 321 322 321 320 319 316 316 316 317 317 316 313 313 313 307 312 311 314 315 314 316 316
364 364 365 367 367 352 318 317 325 326 319 320 321 323 323 322 316 316 320 320 320 319 315 315 314 314 313 312 314 316 314 313 309 309 311 310 310 310 311 311 315 315 315
363 363 365 367 351 352 315 314 322 321 314 315 321 322 318 321 313 312 323 322 319 318 320 322 322 320 320 317 315 314 313 310 310 307 310 308 308 309 306 311 313 317 319
Wind_Speed
5 5 4 5 4 4 4 5 5 6 7 8 8 8 9 7 7 5 4 9 8 5 5 7 4 8 9 9 12 17 20 17 6 7 2 5 14 23 21 21 22 21 20
4 6 7 6 6 6 6 6 6 6 6 8 9 9 8 7 7 8 6 6 11 12 7 5 5 7 10 9 12 12 4 8 10 4 12 12 8 20 16 23 23 23 22
4 7 6 6 6 6 6 6 7 6 5 5 5 5 5 6 6 8 6 6 6 10 15 13 11 9 10 11 4 6 5 7 11 11 8 16 15 23 8 23 27 23 23
4 6 6 5 6 5 4 6 6 6 5 4 5 4 5 5 7 8 8 7 7 7 10 17 17 16 14 13 10 4 7 5 7 8 9 12 21 18 22 19 31 25 22
6 6 6 6 6 4 4 5 5 5 7 7 6 4 6 7 8 8 8 9 10 8 6 14 17 18 18 17 15 9 6 5 5 6 5 7 11 11 11 22 23 24 23
4 4 5 6 5 4 4 4 6 6 5 5 5 3 5 6 6 6 7 6 9 9 8 9 7 12 19 19 18 16 14 11 10 8 10 10 10 10 15 14 5 20 15
2 3 4 4 4 5 6 5 5 6 7 5 3 1 3 6 7 5 5 6 8 8 8 9 7 7 7 14 18 17 17 16 13 10 8 9 4 4 10 10 9 17 19
3 4 4 4 5 6 6 5 4 4 3 3 3 3 1 4 5 5 5 5 6 5 6 8 9 10 8 7 11 17 17 16 16 15 12 4 6 4 4 8 11 13 20
3 3 4 5 5 5 6 5 5 7 5 2 2 3 3 3 2 2 5 4 3 4 4 6 9 8 9 8 9 11 16 16 17 18 16 12 5 9 8 4 10 13 12
2 4 5 6 6 5 6 5 4 5 3 5 1 2 3 3 3 2 3 3 2 3 5 5 6 8 7 7 10 15 15 16 17 17 18 18 9 6 12 12 15 16 15
3 3 4 5 3 2 3 5 5 6 3 4 3 1 1 1 1 3 2 3 3 1 3 3 4 5 6 6 6 11 13 14 15 16 17 17 16 9 9 14 16 21 22
1 3 5 4 3 4 4 4 4 4 4 3 3 3 3 2 2 2 3 2 3 2 1 1 2 4 4 5 7 8 12 13 13 14 15 15 16 16 12 10 15 19 22
1 3 5 4 3 4 3 2 5 3 3 2 2 3 2 3 3 3 4 2 4 3 3 3 1 2 4 3 4 6 10 12 13 13 13 15 14 13 13 9 13 18 19
2 4 3 3 3 2 2 4 3 2 3 3 5 5 3 4 4 4 4 4 4 4 3 2 2 1 2 3 4 2 7 11 12 12 13 13 14 14 15 15 8 8 15
3 3 2 1 3 2 4 4 3 3 4 4 5 4 4 4 4 4 4 4 5 6 3 3 1 2 3 2 4 5 6 11 12 12 11 12 13 13 15 15 14 14 8
4 2 2 2 3 1 5 4 5 4 4 3 4 4 4 4 3 4 4 4 3 4 4 2 2 3 4 2 6 5 7 5 11 13 12 11 11 12 13 12 13 16 13
6 5 4 4 4 2 5 5 5 6 5 4 4 4 5 4 4 4 4 4 4 4 4 2 1 3 1 2 4 4 2 3 5 10 12 12 11 10 11 10 11 13 13
7 7 6 5 5 4 6 7 8 6 4 5 5 5 5 4 5 5 5 6 6 5 4 2 4 2 3 3 2 1 2 2 3 7 10 11 10 10 8 8 9 12 11
9 8 7 7 7 6 6 7 9 7 5 6 5 5 5 5 5 6 6 6 6 5 4 4 4 3 1 3 2 2 4 3 3 6 7 7 8 9 6 6 7 10 9
10 10 9 8 7 7 7 9 10 8 7 6 5 6 6 6 6 7 7 7 6 6 6 6 5 5 4 3 3 4 3 3 3 3 2 5 4 6 6 6 7 8 9
10 10 10 8 7 7 7 10 10 9 7 8 7 7 7 8 8 7 6 7 6 7 7 7 7 7 7 5 5 4 1 4 2 3 2 2 2 3 4 4 8 9 8
10 10 10 9 9 7 13 13 14 11 8 10 9 9 10 11 11 12 14 15 11 8 9 7 7 6 5 5 4 4 3 3 1 4 1 2 2 2 3 2 8 11 10
10 11 11 10 10 7 14 15 13 11 9 9 11 11 10 8 9 11 12 13 13 13 10 7 8 6 5 6 4 3 2 4 2 4 1 2 2 2 4 3 2 9 10
11 10 11 11 9 7 15 15 14 12 8 9 11 11 10 11 8 8 7 7 7 8 8 7 9 9 8 8 5 4 3 3 2 3 3 2 2 2 1 2 5 9 9
9 10 9 11 10 7 14 16 13 12 10 8 10 10 10 10 10 8 6 6 6 7 6 7 11 9 11 16 13 6 4 1 2 3 5 2 2 2 2 0 6 11 10
10 8 9 10 10 10 14 17 13 10 10 8 9 9 7 8 10 8 5 4 4 5 4 3 6 8 11 11 14 10 7 5 3 2 4 2 1 0 2 5 7 6 9
Wind_Direction
330 330 330 341 333 340 344 346 348 348 346 349 343 338 344 345 356 2 14 31 7 331 288 293 267 256 276 244 258 258 247 241 264 231 190 304 330 252 230 218 212 206 201
325 329 334 329 331 349 353 351 346 328 341 352 349 350 343 0 21 14 21 27 29 50 61 32 354 329 316 285 279 335 256 81 90 306 286 288 255 264 265 240 217 207 203
316 324 320 315 341 344 343 346 348 350 343 356 350 33 41 45 30 28 18 15 16 50 34 45 48 38 39 42 50 180 134 165 203 222 201 237 227 236 250 266 229 207 201
275 283 292 328 339 330 336 344 347 342 338 355 14 29 49 52 40 35 28 23 21 30 58 49 49 45 65 69 92 106 79 107 172 217 188 213 234 219 226 307 217 210 197
266 274 298 314 319 313 316 322 338 337 340 358 357 28 44 39 35 33 31 38 39 37 46 64 56 53 47 47 35 30 3 337 290 288 230 213 162 178 198 250 197 203 187
264 281 294 298 296 290 297 330 336 348 336 353 349 37 58 65 41 30 23 42 48 46 50 49 49 56 43 41 35 21 6 354 336 322 286 276 243 208 214 241 156 170 156
248 275 296 297 299 300 329 335 334 341 344 348 312 291 94 65 51 52 45 46 51 54 48 52 43 41 41 40 34 26 14 6 7 1 346 271 313 317 201 185 194 142 165
300 282 287 305 306 308 320 332 355 333 315 342 331 328 242 145 76 54 53 52 62 52 45 60 56 45 26 31 32 30 21 11 5 17 31 32 228 135 175 158 162 163 177
279 271 297 299 297 293 309 328 349 333 320 8 9 339 320 358 129 68 61 57 54 77 56 61 50 48 37 28 22 25 26 21 16 12 22 37 154 172 150 169 174 179 183
302 298 313 310 294 300 311 336 347 336 331 338 34 71 63 342 324 200 115 82 85 72 54 48 43 44 37 32 36 39 30 29 26 22 21 26 40 140 180 176 163 161 164
348 38 358 343 319 292 337 346 350 7 355 344 351 335 54 51 18 300 307 168 123 55 51 48 34 35 41 20 32 48 31 33 30 27 26 30 29 50 120 163 162 156 155
65 351 356 8 6 354 2 357 38 29 43 57 51 52 30 354 359 312 289 245 287 189 168 65 23 30 34 25 45 46 34 33 34 27 33 33 37 43 66 119 136 137 139
6 8 1 19 10 12 20 40 66 72 74 73 48 60 36 27 343 329 301 283 274 213 204 212 158 24 13 8 33 23 54 42 35 38 36 40 44 51 58 63 132 137 138
309 354 359 33 359 1 107 90 107 111 91 70 73 62 59 32 19 10 337 307 284 246 216 274 153 47 9 348 38 78 71 54 61 44 41 49 54 60 58 63 72 146 139
262 310 274 339 312 324 106 129 137 124 115 103 90 83 66 53 39 28 25 356 326 318 326 134 276 58 14 12 61 53 55 55 56 58 55 52 58 64 64 64 62 62 152
238 249 205 244 292 138 129 161 130 115 126 111 96 86 58 42 39 29 18 20 359 327 316 0 69 12 3 65 75 47 55 44 63 62 58 62 62 66 73 72 73 78 85
235 236 245 256 257 226 156 165 145 141 132 125 109 91 72 42 47 42 42 30 22 352 323 112 306 41 1 21 106 104 67 44 71 66 65 67 68 62 67 71 84 76 77
230 242 242 241 250 240 178 170 156 140 161 150 122 104 84 70 66 45 47 36 35 27 342 347 34 27 26 18 21 100 126 102 78 82 68 66 70 73 68 70 91 89 73
227 240 243 237 241 229 189 162 152 149 151 141 136 122 108 94 72 66 47 44 44 37 30 29 45 36 12 16 335 121 84 133 124 115 99 64 65 66 82 91 89 100 95
223 231 231 226 222 212 182 163 153 142 141 132 127 113 111 101 95 83 72 67 59 58 48 41 42 33 12 21 319 341 63 80 111 59 65 131 83 55 67 131 118 114 112
214 219 224 215 210 204 179 161 150 141 143 134 118 118 113 105 85 56 86 69 66 57 50 42 38 34 16 2 1 335 42 117 89 31 92 112 104 80 82 133 138 138 131
210 205 218 216 205 211 136 155 149 148 149 144 138 132 129 129 109 94 86 67 50 57 51 31 40 32 7 350 340 345 10 83 92 52 84 99 96 84 68 61 112 144 138
206 204 209 212 209 200 152 150 145 148 148 151 150 150 152 135 138 119 107 96 76 66 51 27 39 33 5 350 335 299 45 65 76 10 187 83 58 81 61 73 97 147 153
207 203 203 205 204 177 160 145 142 140 140 161 160 160 149 155 157 147 134 114 87 64 50 38 42 42 35 1 349 342 343 85 107 54 13 89 24 68 83 124 140 140 140
207 207 204 197 193 161 154 148 149 153 141 155 164 165 157 161 163 161 150 138 128 114 96 77 77 73 64 37 23 29 30 162 100 76 21 72 46 359 17 221 157 144 137
204 206 205 195 174 160 165 161 159 151 145 158 165 166 176 172 168 186 169 164 154 146 149 91 79 70 51 66 46 45 29 37 60 101 14 70 16 316 33 22 114 130 136